Location: Cutler
(25.6150°N, 80.3110°W)
Time: 05:13:31
(UTC-04:00)

Cosmos 2360 Rocket - Visible Passes

Search period start: 30 August 2016 00:00
Search period end: 09 September 2016 00:00
Orbit: 832 x 847 km, 71.0° (Epoch: 29 August)

Date Brightness Start Highest point End Pass type
(mag) Time Alt. Az. Time Alt. Az. Time Alt. Az.
03 Sep 4.2 21:53:08 16° NNE 21:53:08 16° NNE 21:54:10 10° NNE visible
04 Sep 2.6 21:27:16 10° S 21:34:31 46° NE 21:38:29 10° NNE visible
04 Sep 5.1 23:16:00 10° WNW 23:17:18 11° WNW 23:18:35 10° NW visible
05 Sep 2.0 21:11:38 10° S 21:17:13 66° ESE 21:22:49 10° NNE visible
05 Sep 5.1 22:59:37 10° W 23:01:35 12° WNW 23:03:33 10° NW visible
06 Sep 2.1 20:56:02 10° S 21:01:33 61° ESE 21:07:08 10° NNE visible
06 Sep 5.0 22:43:25 10° W 22:45:52 13° WNW 22:48:20 10° NW visible
07 Sep 2.2 20:40:25 10° S 20:45:55 56° ESE 20:51:26 10° NNE visible
07 Sep 5.0 22:27:21 10° W 22:30:11 14° WNW 22:33:01 10° NNW visible
08 Sep 2.3 20:24:49 10° S 20:30:16 52° ESE 20:35:44 10° NNE visible
08 Sep 5.0 22:11:18 10° W 22:14:28 15° WNW 22:17:38 10° NNW visible
